Location: Unspecified
(0.0000°N, 0.0000°E)
Time: 15:41:56
(UTC+00:00)

FENGYUN 1C DEB - Pass Details

Date: 23 February 2026
Orbit: 814 x 927 km, 98.2° (Epoch: 15 July)

Event Time Altitude Azimuth Distance (km) Brightness Sun altitude
Rises 18:31:02 0° 148° (SSE) 3,417 ? -4.4°
Reaches altitude 10° 18:33:40 10° 138° (SE) 2,491 ? -5.0°
Maximum altitude 18:38:28 30° 77° (ENE) 1,495 ? -6.2°
Drops below altitude 10° 18:43:18 10° 18° (NNE) 2,519 ? -7.4°
Sets 18:45:58 0° 7° (N) 3,462 ? -8.1°
